Year,Month,Day,Hour,Minute,Value (Times are PST for temperature in C)
2017,09,02,00,00,19.70
2017,09,02,00,01,19.70
2017,09,02,00,02,19.70
2017,09,02,00,03,19.60
2017,09,02,00,04,19.60
2017,09,02,00,05,19.60
2017,09,02,00,06,19.50
2017,09,02,00,07,19.50
2017,09,02,00,08,19.40
2017,09,02,00,09,19.40
2017,09,02,00,10,19.30
2017,09,02,00,11,19.30
2017,09,02,00,12,19.20
2017,09,02,00,13,19.20
2017,09,02,00,14,19.20
2017,09,02,00,15,19.20
2017,09,02,00,16,19.20
2017,09,02,00,17,19.20
2017,09,02,00,18,19.30
2017,09,02,00,19,19.30
2017,09,02,00,20,19.30
2017,09,02,00,21,19.30
2017,09,02,00,22,19.30
2017,09,02,00,23,19.30
2017,09,02,00,24,19.30
2017,09,02,00,25,19.30
2017,09,02,00,26,19.30
2017,09,02,00,27,19.40
2017,09,02,00,28,19.40
2017,09,02,00,29,19.40
2017,09,02,00,30,19.50
2017,09,02,00,31,19.50
2017,09,02,00,32,19.60
2017,09,02,00,33,19.60
2017,09,02,00,34,19.70
2017,09,02,00,35,19.70
2017,09,02,00,36,19.80
2017,09,02,00,37,19.80
2017,09,02,00,38,19.80
2017,09,02,00,39,19.80
2017,09,02,00,40,19.80
2017,09,02,00,41,19.80
2017,09,02,00,42,19.80
2017,09,02,00,43,19.80
2017,09,02,00,44,19.70
2017,09,02,00,45,19.70
2017,09,02,00,46,19.60
2017,09,02,00,47,19.60
2017,09,02,00,48,19.50
2017,09,02,00,49,19.50
2017,09,02,00,50,19.40
2017,09,02,00,51,19.40
2017,09,02,00,52,19.40
2017,09,02,00,53,19.30
2017,09,02,00,54,19.30
2017,09,02,00,55,19.30
2017,09,02,00,56,19.30
2017,09,02,00,57,19.30
2017,09,02,00,58,19.20
2017,09,02,00,59,19.20
2017,09,02,01,00,19.20
2017,09,02,01,01,19.10
2017,09,02,01,02,19.10
2017,09,02,01,03,19.00
2017,09,02,01,04,19.00
2017,09,02,01,05,19.00
2017,09,02,01,06,19.10
2017,09,02,01,07,19.10
2017,09,02,01,08,19.10
2017,09,02,01,09,19.10
2017,09,02,01,10,19.20
2017,09,02,01,11,19.20
2017,09,02,01,12,19.30
2017,09,02,01,13,19.30
2017,09,02,01,14,19.40
2017,09,02,01,15,19.50
2017,09,02,01,16,19.60
2017,09,02,01,17,19.60
2017,09,02,01,18,19.60
2017,09,02,01,19,19.70
2017,09,02,01,20,19.70
2017,09,02,01,21,19.70
2017,09,02,01,22,19.70
2017,09,02,01,23,19.70
2017,09,02,01,24,19.70
2017,09,02,01,25,19.80
2017,09,02,01,26,19.80
2017,09,02,01,27,19.80
2017,09,02,01,28,19.80
2017,09,02,01,29,19.90
2017,09,02,01,30,19.90
2017,09,02,01,31,20.00
2017,09,02,01,32,20.00
2017,09,02,01,33,20.10
2017,09,02,01,34,20.10
2017,09,02,01,35,20.10
2017,09,02,01,36,20.10
2017,09,02,01,37,20.10
2017,09,02,01,38,20.10
2017,09,02,01,39,20.10
2017,09,02,01,40,20.10
2017,09,02,01,41,20.10
2017,09,02,01,42,20.10
2017,09,02,01,43,20.10
2017,09,02,01,44,20.00
2017,09,02,01,45,20.00
2017,09,02,01,46,20.00
2017,09,02,01,47,20.00
2017,09,02,01,48,20.00
2017,09,02,01,49,20.00
2017,09,02,01,50,20.10
2017,09,02,01,51,20.10
2017,09,02,01,52,20.20
2017,09,02,01,53,20.20
2017,09,02,01,54,20.20
2017,09,02,01,55,20.30
2017,09,02,01,56,20.30
2017,09,02,01,57,20.30
2017,09,02,01,58,20.30
2017,09,02,01,59,20.30
2017,09,02,02,00,20.30
2017,09,02,02,01,20.20
2017,09,02,02,02,20.20
2017,09,02,02,03,20.20
2017,09,02,02,04,20.20
2017,09,02,02,05,20.20
2017,09,02,02,06,20.20
2017,09,02,02,07,20.20
2017,09,02,02,08,20.20
2017,09,02,02,09,20.20
2017,09,02,02,10,20.30
2017,09,02,02,11,20.20
2017,09,02,02,12,20.20
2017,09,02,02,13,20.20
2017,09,02,02,14,20.20
2017,09,02,02,15,20.10
2017,09,02,02,16,20.10
2017,09,02,02,17,20.00
2017,09,02,02,18,20.00
2017,09,02,02,19,19.90
2017,09,02,02,20,19.90
2017,09,02,02,21,19.90
2017,09,02,02,22,20.00
2017,09,02,02,23,20.00
2017,09,02,02,24,20.10
2017,09,02,02,25,20.20
2017,09,02,02,26,20.30
2017,09,02,02,27,20.30
2017,09,02,02,28,20.40
2017,09,02,02,29,20.40
2017,09,02,02,30,20.50
2017,09,02,02,31,20.50
2017,09,02,02,32,20.60
2017,09,02,02,33,20.60
2017,09,02,02,34,20.60
2017,09,02,02,35,20.60
2017,09,02,02,36,20.60
2017,09,02,02,37,20.50
2017,09,02,02,38,20.40
2017,09,02,02,39,20.30
2017,09,02,02,40,20.20
2017,09,02,02,41,20.10
2017,09,02,02,42,20.10
2017,09,02,02,43,20.00
2017,09,02,02,44,19.80
2017,09,02,02,45,19.70
2017,09,02,02,46,19.70
2017,09,02,02,47,19.70
2017,09,02,02,48,19.70
2017,09,02,02,49,19.60
2017,09,02,02,50,19.60
2017,09,02,02,51,19.60
2017,09,02,02,52,19.60
2017,09,02,02,53,19.60
2017,09,02,02,54,19.50
2017,09,02,02,55,19.50
2017,09,02,02,56,19.50
2017,09,02,02,57,19.40
2017,09,02,02,58,19.40
2017,09,02,02,59,19.40
2017,09,02,03,00,19.40
2017,09,02,03,01,19.40
2017,09,02,03,02,19.40
2017,09,02,03,03,19.30
2017,09,02,03,04,19.30
2017,09,02,03,05,19.30
2017,09,02,03,06,19.30
2017,09,02,03,07,19.20
2017,09,02,03,08,19.20
2017,09,02,03,09,19.10
2017,09,02,03,10,19.10
2017,09,02,03,11,19.10
2017,09,02,03,12,19.00
2017,09,02,03,13,18.90
2017,09,02,03,14,18.90
2017,09,02,03,15,18.80
2017,09,02,03,16,18.80
2017,09,02,03,17,18.70
2017,09,02,03,18,18.70
2017,09,02,03,19,18.60
2017,09,02,03,20,18.50
2017,09,02,03,21,18.40
2017,09,02,03,22,18.30
2017,09,02,03,23,18.30
2017,09,02,03,24,18.20
2017,09,02,03,25,18.20
2017,09,02,03,26,18.20
2017,09,02,03,27,18.20
2017,09,02,03,28,18.20
2017,09,02,03,29,18.20
2017,09,02,03,30,18.20
2017,09,02,03,31,18.20
2017,09,02,03,32,18.20
2017,09,02,03,33,18.30
2017,09,02,03,34,18.30
2017,09,02,03,35,18.30
2017,09,02,03,36,18.20
2017,09,02,03,37,18.20
2017,09,02,03,38,18.20
2017,09,02,03,39,18.20
2017,09,02,03,40,18.20
2017,09,02,03,41,18.20
2017,09,02,03,42,18.20
2017,09,02,03,43,18.20
2017,09,02,03,44,18.20
2017,09,02,03,45,18.10
2017,09,02,03,46,18.10
2017,09,02,03,47,18.20
2017,09,02,03,48,18.20
2017,09,02,03,49,18.20
2017,09,02,03,50,18.20
2017,09,02,03,51,18.30
2017,09,02,03,52,18.30
2017,09,02,03,53,18.40
2017,09,02,03,54,18.40
2017,09,02,03,55,18.40
2017,09,02,03,56,18.40
2017,09,02,03,57,18.40
2017,09,02,03,58,18.40
2017,09,02,03,59,18.40
2017,09,02,04,00,18.40
2017,09,02,04,01,18.40
2017,09,02,04,02,18.30
2017,09,02,04,03,18.20
2017,09,02,04,04,18.20
2017,09,02,04,05,18.20
2017,09,02,04,06,18.20
2017,09,02,04,07,18.30
2017,09,02,04,08,18.40
2017,09,02,04,09,18.40
2017,09,02,04,10,18.50
2017,09,02,04,11,18.60
2017,09,02,04,12,18.80
2017,09,02,04,13,18.90
2017,09,02,04,14,18.90
2017,09,02,04,15,19.00
2017,09,02,04,16,19.00
2017,09,02,04,17,19.00
2017,09,02,04,18,19.00
2017,09,02,04,19,19.00
2017,09,02,04,20,19.00
2017,09,02,04,21,19.00
2017,09,02,04,22,19.00
2017,09,02,04,23,19.00
2017,09,02,04,24,19.00
2017,09,02,04,25,18.90
2017,09,02,04,26,18.90
2017,09,02,04,27,18.90
2017,09,02,04,28,18.90
2017,09,02,04,29,18.90
2017,09,02,04,30,18.90
2017,09,02,04,31,18.90
2017,09,02,04,32,18.90
2017,09,02,04,33,18.90
2017,09,02,04,34,18.90
2017,09,02,04,35,19.00
2017,09,02,04,36,19.00
2017,09,02,04,37,19.10
2017,09,02,04,38,19.10
2017,09,02,04,39,19.10
2017,09,02,04,40,19.20
2017,09,02,04,41,19.20
2017,09,02,04,42,19.20
2017,09,02,04,43,19.20
2017,09,02,04,44,19.20
2017,09,02,04,45,19.10
2017,09,02,04,46,19.10
2017,09,02,04,47,19.10
2017,09,02,04,48,19.10
2017,09,02,04,49,19.10
2017,09,02,04,50,19.10
2017,09,02,04,51,19.00
2017,09,02,04,52,19.00
2017,09,02,04,53,19.00
2017,09,02,04,54,19.00
2017,09,02,04,55,18.90
2017,09,02,04,56,18.90
2017,09,02,04,57,18.90
2017,09,02,04,58,18.90
2017,09,02,04,59,18.90
2017,09,02,05,00,19.00
2017,09,02,05,01,19.00
2017,09,02,05,02,19.00
2017,09,02,05,03,19.00
2017,09,02,05,04,19.00
2017,09,02,05,05,18.90
2017,09,02,05,06,18.90
2017,09,02,05,07,18.90
2017,09,02,05,08,18.90
2017,09,02,05,09,18.90
2017,09,02,05,10,18.90
2017,09,02,05,11,18.80
2017,09,02,05,12,18.80
2017,09,02,05,13,18.70
2017,09,02,05,14,18.60
2017,09,02,05,15,18.60
2017,09,02,05,16,18.60
2017,09,02,05,17,18.60
2017,09,02,05,18,18.50
2017,09,02,05,19,18.50
2017,09,02,05,20,18.50
2017,09,02,05,21,18.40
2017,09,02,05,22,18.30
2017,09,02,05,23,18.20
2017,09,02,05,24,18.10
2017,09,02,05,25,18.00
2017,09,02,05,26,17.90
2017,09,02,05,27,17.80
2017,09,02,05,28,17.80
2017,09,02,05,29,17.80
2017,09,02,05,30,17.70
2017,09,02,05,31,17.70
2017,09,02,05,32,17.70
2017,09,02,05,33,17.70
2017,09,02,05,34,17.70
2017,09,02,05,35,17.60
2017,09,02,05,36,17.60
2017,09,02,05,37,17.60
2017,09,02,05,38,17.60
2017,09,02,05,39,17.60
2017,09,02,05,40,17.50
2017,09,02,05,41,17.50
2017,09,02,05,42,17.50
2017,09,02,05,43,17.50
2017,09,02,05,44,17.40
2017,09,02,05,45,17.40
2017,09,02,05,46,17.40
2017,09,02,05,47,17.40
2017,09,02,05,48,17.40
2017,09,02,05,49,17.30
2017,09,02,05,50,17.30
2017,09,02,05,51,17.30
2017,09,02,05,52,17.30
2017,09,02,05,53,17.30
2017,09,02,05,54,17.30
2017,09,02,05,55,17.40
2017,09,02,05,56,17.40
2017,09,02,05,57,17.40
2017,09,02,05,58,17.50
2017,09,02,05,59,17.50
2017,09,02,06,00,17.50
2017,09,02,06,01,17.60
2017,09,02,06,02,17.50
2017,09,02,06,03,17.50
2017,09,02,06,04,17.50
2017,09,02,06,05,17.50
2017,09,02,06,06,17.40
2017,09,02,06,07,17.40
2017,09,02,06,08,17.40
2017,09,02,06,09,17.40
2017,09,02,06,10,17.40
2017,09,02,06,11,17.40
2017,09,02,06,12,17.40
2017,09,02,06,13,17.50
2017,09,02,06,14,17.50
2017,09,02,06,15,17.50
2017,09,02,06,16,17.60
2017,09,02,06,17,17.60
2017,09,02,06,18,17.60
2017,09,02,06,19,17.60
2017,09,02,06,20,17.70
2017,09,02,06,21,17.70
2017,09,02,06,22,17.70
2017,09,02,06,23,17.70
2017,09,02,06,24,17.70
2017,09,02,06,25,17.60
2017,09,02,06,26,17.60
2017,09,02,06,27,17.60
2017,09,02,06,28,17.60
2017,09,02,06,29,17.60
2017,09,02,06,30,17.60
2017,09,02,06,31,17.60
2017,09,02,06,32,17.60
2017,09,02,06,33,17.70
2017,09,02,06,34,17.70
2017,09,02,06,35,17.70
2017,09,02,06,36,17.80
2017,09,02,06,37,17.90
2017,09,02,06,38,17.90
2017,09,02,06,39,18.00
2017,09,02,06,40,18.10
2017,09,02,06,41,18.10
2017,09,02,06,42,18.10
2017,09,02,06,43,18.10
2017,09,02,06,44,18.10
2017,09,02,06,45,18.10
2017,09,02,06,46,18.10
2017,09,02,06,47,18.00
2017,09,02,06,48,18.00
2017,09,02,06,49,18.00
2017,09,02,06,50,17.90
2017,09,02,06,51,17.90
2017,09,02,06,52,17.90
2017,09,02,06,53,17.80
2017,09,02,06,54,17.80
2017,09,02,06,55,17.70
2017,09,02,06,56,17.70
2017,09,02,06,57,17.70
2017,09,02,06,58,17.70
2017,09,02,06,59,17.70
2017,09,02,07,00,17.70
2017,09,02,07,01,17.70
2017,09,02,07,02,17.70
2017,09,02,07,03,17.60
2017,09,02,07,04,17.60
2017,09,02,07,05,17.60
2017,09,02,07,06,17.60
2017,09,02,07,07,17.60
2017,09,02,07,08,17.60
2017,09,02,07,09,17.60
2017,09,02,07,10,17.60
2017,09,02,07,11,17.70
2017,09,02,07,12,17.70
2017,09,02,07,13,17.80
2017,09,02,07,14,17.80
2017,09,02,07,15,17.80
2017,09,02,07,16,17.80
2017,09,02,07,17,17.80
2017,09,02,07,18,17.80
2017,09,02,07,19,17.80
2017,09,02,07,20,17.80
2017,09,02,07,21,17.80
2017,09,02,07,22,17.80
2017,09,02,07,23,17.80
2017,09,02,07,24,17.80
2017,09,02,07,25,17.90
2017,09,02,07,26,18.00
2017,09,02,07,27,18.10
2017,09,02,07,28,18.10
2017,09,02,07,29,18.20
2017,09,02,07,30,18.30
2017,09,02,07,31,18.40
2017,09,02,07,32,18.40
2017,09,02,07,33,18.50
2017,09,02,07,34,18.60
2017,09,02,07,35,18.70
2017,09,02,07,36,18.80
2017,09,02,07,37,18.90
2017,09,02,07,38,19.10
2017,09,02,07,39,19.20
2017,09,02,07,40,19.30
2017,09,02,07,41,19.40
2017,09,02,07,42,19.50
2017,09,02,07,43,19.60
2017,09,02,07,44,19.70
2017,09,02,07,45,19.90
2017,09,02,07,46,20.00
2017,09,02,07,47,20.10
2017,09,02,07,48,20.20
2017,09,02,07,49,20.30
2017,09,02,07,50,20.40
2017,09,02,07,51,20.50
2017,09,02,07,52,20.60
2017,09,02,07,53,20.60
2017,09,02,07,54,20.70
2017,09,02,07,55,20.70
2017,09,02,07,56,20.70
2017,09,02,07,57,20.70
2017,09,02,07,58,20.70
2017,09,02,07,59,20.80
2017,09,02,08,00,20.80
2017,09,02,08,01,20.80
2017,09,02,08,02,20.80
2017,09,02,08,03,20.90
2017,09,02,08,04,20.90
2017,09,02,08,05,20.90
2017,09,02,08,06,20.90
2017,09,02,08,07,20.90
2017,09,02,08,08,21.00
2017,09,02,08,09,21.00
2017,09,02,08,10,21.00
2017,09,02,08,11,21.00
2017,09,02,08,12,21.00
2017,09,02,08,13,21.00
2017,09,02,08,14,21.00
2017,09,02,08,15,21.00
2017,09,02,08,16,21.00
2017,09,02,08,17,21.00
2017,09,02,08,18,20.90
2017,09,02,08,19,20.90
2017,09,02,08,20,20.90
2017,09,02,08,21,20.80
2017,09,02,08,22,20.80
2017,09,02,08,23,20.80
2017,09,02,08,24,20.80
2017,09,02,08,25,20.80
2017,09,02,08,26,20.80
2017,09,02,08,27,20.80
2017,09,02,08,28,20.80
2017,09,02,08,29,20.80
2017,09,02,08,30,20.90
2017,09,02,08,31,20.90
2017,09,02,08,32,21.00
2017,09,02,08,33,21.00
2017,09,02,08,34,21.00
2017,09,02,08,35,21.00
2017,09,02,08,36,21.00
2017,09,02,08,37,21.00
2017,09,02,08,38,21.00
2017,09,02,08,39,21.00
2017,09,02,08,40,21.00
2017,09,02,08,41,21.00
2017,09,02,08,42,21.00
2017,09,02,08,43,21.00
2017,09,02,08,44,21.10
2017,09,02,08,45,21.10
2017,09,02,08,46,21.20
2017,09,02,08,47,21.30
2017,09,02,08,48,21.30
2017,09,02,08,49,21.30
2017,09,02,08,50,21.40
2017,09,02,08,51,21.40
2017,09,02,08,52,21.40
2017,09,02,08,53,21.40
2017,09,02,08,54,21.50
2017,09,02,08,55,21.50
2017,09,02,08,56,21.50
2017,09,02,08,57,21.50
2017,09,02,08,58,21.60
2017,09,02,08,59,21.60
2017,09,02,09,00,21.60
2017,09,02,09,01,21.60
2017,09,02,09,02,21.60
2017,09,02,09,03,21.60
2017,09,02,09,04,21.60
2017,09,02,09,05,21.60
2017,09,02,09,06,21.60
2017,09,02,09,07,21.60
2017,09,02,09,08,21.60
2017,09,02,09,09,21.50
2017,09,02,09,10,21.50
2017,09,02,09,11,21.40
2017,09,02,09,12,21.30
2017,09,02,09,13,21.20
2017,09,02,09,14,21.20
2017,09,02,09,15,21.10
2017,09,02,09,16,21.00
2017,09,02,09,17,20.90
2017,09,02,09,18,20.90
2017,09,02,09,19,20.80
2017,09,02,09,20,20.80
2017,09,02,09,21,20.80
2017,09,02,09,22,20.80
2017,09,02,09,23,20.80
2017,09,02,09,24,20.80
2017,09,02,09,25,20.80
2017,09,02,09,26,20.90
2017,09,02,09,27,20.90
2017,09,02,09,28,20.90
2017,09,02,09,29,20.90
2017,09,02,09,30,20.90
2017,09,02,09,31,20.90
2017,09,02,09,32,21.00
2017,09,02,09,33,21.00
2017,09,02,09,34,21.00
2017,09,02,09,35,21.00
2017,09,02,09,36,21.00
2017,09,02,09,37,21.10
2017,09,02,09,38,21.10
2017,09,02,09,39,21.10
2017,09,02,09,40,21.20
2017,09,02,09,41,21.20
2017,09,02,09,42,21.30
2017,09,02,09,43,21.30
2017,09,02,09,44,21.40
2017,09,02,09,45,21.40
2017,09,02,09,46,21.40
2017,09,02,09,47,21.50
2017,09,02,09,48,21.50
2017,09,02,09,49,21.60
2017,09,02,09,50,21.60
2017,09,02,09,51,21.60
2017,09,02,09,52,21.60
2017,09,02,09,53,21.60
2017,09,02,09,54,21.60
2017,09,02,09,55,21.60
2017,09,02,09,56,21.60
2017,09,02,09,57,21.60
2017,09,02,09,58,21.50
2017,09,02,09,59,21.50
2017,09,02,10,00,21.40
2017,09,02,10,01,21.40
2017,09,02,10,02,21.40
2017,09,02,10,03,21.40
2017,09,02,10,04,21.40
2017,09,02,10,05,21.50
2017,09,02,10,06,21.50
2017,09,02,10,07,21.60
2017,09,02,10,08,21.60
2017,09,02,10,09,21.60
2017,09,02,10,10,21.60
2017,09,02,10,11,21.60
2017,09,02,10,12,21.60
2017,09,02,10,13,21.60
2017,09,02,10,14,21.60
2017,09,02,10,15,21.60
2017,09,02,10,16,21.60
2017,09,02,10,17,21.70
2017,09,02,10,18,21.70
2017,09,02,10,19,21.70
2017,09,02,10,20,21.70
2017,09,02,10,21,21.70
2017,09,02,10,22,21.70
2017,09,02,10,23,21.70
2017,09,02,10,24,21.80
2017,09,02,10,25,21.80
2017,09,02,10,26,21.70
2017,09,02,10,27,21.80
2017,09,02,10,28,21.80
2017,09,02,10,29,21.80
2017,09,02,10,30,21.80
2017,09,02,10,31,21.80
2017,09,02,10,32,21.80
2017,09,02,10,33,21.90
2017,09,02,10,34,21.90
2017,09,02,10,35,22.00
2017,09,02,10,36,22.00
2017,09,02,10,37,22.10
2017,09,02,10,38,22.10
2017,09,02,10,39,22.10
2017,09,02,10,40,22.20
2017,09,02,10,41,22.20
2017,09,02,10,42,22.20
2017,09,02,10,43,22.20
2017,09,02,10,44,22.20
2017,09,02,10,45,22.20
2017,09,02,10,46,22.20
2017,09,02,10,47,22.20
2017,09,02,10,48,22.20
2017,09,02,10,49,22.10
2017,09,02,10,50,22.10
2017,09,02,10,51,22.00
2017,09,02,10,52,21.90
2017,09,02,10,53,21.90
2017,09,02,10,54,21.80
2017,09,02,10,55,21.80
2017,09,02,10,56,21.80
2017,09,02,10,57,21.80
2017,09,02,10,58,21.80
2017,09,02,10,59,21.80
2017,09,02,11,00,21.80
2017,09,02,11,01,21.90
2017,09,02,11,02,22.00
2017,09,02,11,03,22.00
2017,09,02,11,04,22.10
2017,09,02,11,05,22.10
2017,09,02,11,06,22.10
2017,09,02,11,07,22.20
2017,09,02,11,08,22.20
2017,09,02,11,09,22.20
2017,09,02,11,10,22.20
2017,09,02,11,11,22.20
2017,09,02,11,12,22.20
2017,09,02,11,13,22.20
2017,09,02,11,14,22.20
2017,09,02,11,15,22.20
2017,09,02,11,16,22.30
2017,09,02,11,17,22.30
2017,09,02,11,18,22.30
2017,09,02,11,19,22.30
2017,09,02,11,20,22.40
2017,09,02,11,21,22.40
2017,09,02,11,22,22.40
2017,09,02,11,23,22.40
2017,09,02,11,24,22.40
2017,09,02,11,25,22.40
2017,09,02,11,26,22.40
2017,09,02,11,27,22.40
2017,09,02,11,28,22.50
2017,09,02,11,29,22.50
2017,09,02,11,30,22.60
2017,09,02,11,31,22.70
2017,09,02,11,32,22.80
2017,09,02,11,33,22.80
2017,09,02,11,34,22.90
2017,09,02,11,35,22.90
2017,09,02,11,36,22.90
2017,09,02,11,37,22.90
2017,09,02,11,38,22.90
2017,09,02,11,39,22.90
2017,09,02,11,40,23.00
2017,09,02,11,41,23.00
2017,09,02,11,42,23.10
2017,09,02,11,43,23.10
2017,09,02,11,44,23.20
2017,09,02,11,45,23.20
2017,09,02,11,46,23.10
2017,09,02,11,47,23.10
2017,09,02,11,48,23.00
2017,09,02,11,49,23.00
2017,09,02,11,50,22.90
2017,09,02,11,51,22.80
2017,09,02,11,52,22.80
2017,09,02,11,53,22.80
2017,09,02,11,54,22.80
2017,09,02,11,55,22.70
2017,09,02,11,56,22.70
2017,09,02,11,57,22.70
2017,09,02,11,58,22.70
2017,09,02,11,59,22.80
2017,09,02,12,00,22.80
2017,09,02,12,01,22.80
2017,09,02,12,02,22.80
2017,09,02,12,03,22.90
2017,09,02,12,04,22.90
2017,09,02,12,05,22.90
2017,09,02,12,06,22.90
2017,09,02,12,07,22.90
2017,09,02,12,08,22.90
2017,09,02,12,09,22.90
2017,09,02,12,10,23.00
2017,09,02,12,11,23.00
2017,09,02,12,12,23.00
2017,09,02,12,13,23.00
2017,09,02,12,14,22.90
2017,09,02,12,15,22.80
2017,09,02,12,16,22.80
2017,09,02,12,17,22.70
2017,09,02,12,18,22.70
2017,09,02,12,19,22.70
2017,09,02,12,20,22.80
2017,09,02,12,21,22.80
2017,09,02,12,22,22.80
2017,09,02,12,23,22.80
2017,09,02,12,24,22.90
2017,09,02,12,25,22.90
2017,09,02,12,26,22.90
2017,09,02,12,27,22.90
2017,09,02,12,28,22.90
2017,09,02,12,29,22.90
2017,09,02,12,30,23.00
2017,09,02,12,31,23.00
2017,09,02,12,32,23.00
2017,09,02,12,33,23.00
2017,09,02,12,34,23.00
2017,09,02,12,35,23.00
2017,09,02,12,36,23.00
2017,09,02,12,37,22.90
2017,09,02,12,38,22.90
2017,09,02,12,39,22.90
2017,09,02,12,40,22.90
2017,09,02,12,41,23.00
2017,09,02,12,42,23.10
2017,09,02,12,43,23.10
2017,09,02,12,44,23.20
2017,09,02,12,45,23.30
2017,09,02,12,46,23.40
2017,09,02,12,47,23.50
2017,09,02,12,48,23.60
2017,09,02,12,49,23.60
2017,09,02,12,50,23.60
2017,09,02,12,51,23.60
2017,09,02,12,52,23.60
2017,09,02,12,53,23.60
2017,09,02,12,54,23.60
2017,09,02,12,55,23.50
2017,09,02,12,56,23.50
2017,09,02,12,57,23.60
2017,09,02,12,58,23.60
2017,09,02,12,59,23.60
2017,09,02,13,00,23.60
2017,09,02,13,01,23.70
2017,09,02,13,02,23.70
2017,09,02,13,03,23.70
2017,09,02,13,04,23.70
2017,09,02,13,05,23.70
2017,09,02,13,06,23.70
2017,09,02,13,07,23.80
2017,09,02,13,08,23.70
2017,09,02,13,09,23.70
2017,09,02,13,10,23.60
2017,09,02,13,11,23.60
2017,09,02,13,12,23.60
2017,09,02,13,13,23.60
2017,09,02,13,14,23.50
2017,09,02,13,15,23.50
2017,09,02,13,16,23.40
2017,09,02,13,17,23.40
2017,09,02,13,18,23.40
2017,09,02,13,19,23.40
2017,09,02,13,20,23.30
2017,09,02,13,21,23.30
2017,09,02,13,22,23.30
2017,09,02,13,23,23.20
2017,09,02,13,24,23.10
2017,09,02,13,25,23.10
2017,09,02,13,26,23.10
2017,09,02,13,27,23.10
2017,09,02,13,28,23.10
2017,09,02,13,29,23.10
2017,09,02,13,30,23.00
2017,09,02,13,31,23.00
2017,09,02,13,32,23.10
2017,09,02,13,33,23.10
2017,09,02,13,34,23.10
2017,09,02,13,35,23.10
2017,09,02,13,36,23.10
2017,09,02,13,37,23.10
2017,09,02,13,38,23.10
2017,09,02,13,39,23.10
2017,09,02,13,40,23.00
2017,09,02,13,41,23.00
2017,09,02,13,42,23.00
2017,09,02,13,43,23.10
2017,09,02,13,44,23.10
2017,09,02,13,45,23.20
2017,09,02,13,46,23.20
2017,09,02,13,47,23.20
2017,09,02,13,48,23.30
2017,09,02,13,49,23.40
2017,09,02,13,50,23.40
2017,09,02,13,51,23.50
2017,09,02,13,52,23.50
2017,09,02,13,53,23.50
2017,09,02,13,54,23.40
2017,09,02,13,55,23.40
2017,09,02,13,56,23.30
2017,09,02,13,57,23.20
2017,09,02,13,58,23.30
2017,09,02,13,59,23.30
2017,09,02,14,00,23.40
2017,09,02,14,01,23.40
2017,09,02,14,02,23.50
2017,09,02,14,03,23.60
2017,09,02,14,04,23.70
2017,09,02,14,05,23.70
2017,09,02,14,06,23.80
2017,09,02,14,07,23.80
2017,09,02,14,08,23.90
2017,09,02,14,09,23.90
2017,09,02,14,10,23.90
2017,09,02,14,11,23.90
2017,09,02,14,12,23.90
2017,09,02,14,13,23.80
2017,09,02,14,14,23.80
2017,09,02,14,15,23.70
2017,09,02,14,16,23.60
2017,09,02,14,17,23.60
2017,09,02,14,18,23.60
2017,09,02,14,19,23.60
2017,09,02,14,20,23.60
2017,09,02,14,21,23.70
2017,09,02,14,22,23.70
2017,09,02,14,23,23.80
2017,09,02,14,24,23.90
2017,09,02,14,25,24.00
2017,09,02,14,26,24.00
2017,09,02,14,27,24.10
2017,09,02,14,28,24.10
2017,09,02,14,29,24.10
2017,09,02,14,30,24.20
2017,09,02,14,31,24.20
2017,09,02,14,32,24.20
2017,09,02,14,33,24.20
2017,09,02,14,34,24.20
2017,09,02,14,35,24.20
2017,09,02,14,36,24.30
2017,09,02,14,37,24.30
2017,09,02,14,38,24.30
2017,09,02,14,39,24.30
2017,09,02,14,40,24.30
2017,09,02,14,41,24.30
2017,09,02,14,42,24.30
2017,09,02,14,43,24.30
2017,09,02,14,44,24.30
2017,09,02,14,45,24.30
2017,09,02,14,46,24.30
2017,09,02,14,47,24.30
2017,09,02,14,48,24.30
2017,09,02,14,49,24.30
2017,09,02,14,50,24.40
2017,09,02,14,51,24.40
2017,09,02,14,52,24.60
2017,09,02,14,53,24.70
2017,09,02,14,54,24.80
2017,09,02,14,55,24.90
2017,09,02,14,56,25.10
2017,09,02,14,57,25.20
2017,09,02,14,58,25.30
2017,09,02,14,59,25.40
2017,09,02,15,00,25.50
2017,09,02,15,01,25.60
2017,09,02,15,02,25.60
2017,09,02,15,03,25.60
2017,09,02,15,04,25.70
2017,09,02,15,05,25.70
2017,09,02,15,06,25.80
2017,09,02,15,07,25.80
2017,09,02,15,08,25.90
2017,09,02,15,09,25.90
2017,09,02,15,10,26.00
2017,09,02,15,11,26.00
2017,09,02,15,12,26.10
2017,09,02,15,13,26.10
2017,09,02,15,14,26.20
2017,09,02,15,15,26.30
2017,09,02,15,16,26.30
2017,09,02,15,17,26.40
2017,09,02,15,18,26.50
2017,09,02,15,19,26.60
2017,09,02,15,20,26.60
2017,09,02,15,21,26.70
2017,09,02,15,22,26.80
2017,09,02,15,23,26.80
2017,09,02,15,24,26.80
2017,09,02,15,25,26.90
2017,09,02,15,26,26.90
2017,09,02,15,27,26.90
2017,09,02,15,28,26.90
2017,09,02,15,29,26.80
2017,09,02,15,30,26.70
2017,09,02,15,31,26.70
2017,09,02,15,32,26.70
2017,09,02,15,33,26.70
2017,09,02,15,34,26.70
2017,09,02,15,35,26.60
2017,09,02,15,36,26.50
2017,09,02,15,37,26.40
2017,09,02,15,38,26.30
2017,09,02,15,39,26.30
2017,09,02,15,40,26.20
2017,09,02,15,41,26.30
2017,09,02,15,42,26.30
2017,09,02,15,43,26.40
2017,09,02,15,44,26.40
2017,09,02,15,45,26.50
2017,09,02,15,46,26.60
2017,09,02,15,47,26.70
2017,09,02,15,48,26.70
2017,09,02,15,49,26.80
2017,09,02,15,50,26.90
2017,09,02,15,51,27.00
2017,09,02,15,52,27.00
2017,09,02,15,53,26.90
2017,09,02,15,54,26.90
2017,09,02,15,55,26.90
2017,09,02,15,56,26.80
2017,09,02,15,57,26.80
2017,09,02,15,58,26.70
2017,09,02,15,59,26.70
2017,09,02,16,00,26.60
2017,09,02,16,01,26.50
2017,09,02,16,02,26.50
2017,09,02,16,03,26.70
2017,09,02,16,04,26.80
2017,09,02,16,05,26.90
2017,09,02,16,06,27.00
2017,09,02,16,07,27.10
2017,09,02,16,08,27.30
2017,09,02,16,09,27.50
2017,09,02,16,10,27.60
2017,09,02,16,11,27.70
2017,09,02,16,12,27.80
2017,09,02,16,13,27.80
2017,09,02,16,14,27.70
2017,09,02,16,15,27.60
2017,09,02,16,16,27.50
2017,09,02,16,17,27.30
2017,09,02,16,18,27.20
2017,09,02,16,19,27.10
2017,09,02,16,20,27.00
2017,09,02,16,21,26.90
2017,09,02,16,22,27.00
2017,09,02,16,23,27.10
2017,09,02,16,24,27.20
2017,09,02,16,25,27.40
2017,09,02,16,26,27.50
2017,09,02,16,27,27.60
2017,09,02,16,28,27.80
2017,09,02,16,29,27.90
2017,09,02,16,30,28.10
2017,09,02,16,31,28.30
2017,09,02,16,32,28.40
2017,09,02,16,33,28.60
2017,09,02,16,34,28.60
2017,09,02,16,35,28.40
2017,09,02,16,36,28.30
2017,09,02,16,37,28.10
2017,09,02,16,38,28.00
2017,09,02,16,39,27.90
2017,09,02,16,40,27.90
2017,09,02,16,41,27.80
2017,09,02,16,42,27.70
2017,09,02,16,43,27.60
2017,09,02,16,44,27.60
2017,09,02,16,45,27.70
2017,09,02,16,46,27.70
2017,09,02,16,47,27.70
2017,09,02,16,48,27.80
2017,09,02,16,49,27.80
2017,09,02,16,50,27.80
2017,09,02,16,51,27.80
2017,09,02,16,52,27.80
2017,09,02,16,53,27.80
2017,09,02,16,54,27.80
2017,09,02,16,55,27.80
2017,09,02,16,56,27.90
2017,09,02,16,57,28.00
2017,09,02,16,58,28.10
2017,09,02,16,59,28.20
2017,09,02,17,00,28.30
2017,09,02,17,01,28.40
2017,09,02,17,02,28.40
2017,09,02,17,03,28.50
2017,09,02,17,04,28.60
2017,09,02,17,05,28.70
2017,09,02,17,06,28.80
2017,09,02,17,07,29.00
2017,09,02,17,08,29.00
2017,09,02,17,09,29.10
2017,09,02,17,10,29.20
2017,09,02,17,11,29.30
2017,09,02,17,12,29.40
2017,09,02,17,13,29.40
2017,09,02,17,14,29.50
2017,09,02,17,15,29.60
2017,09,02,17,16,29.60
2017,09,02,17,17,29.70
2017,09,02,17,18,29.70
2017,09,02,17,19,29.80